Location: ?p Thanh B�nh
(16.5833°N, 107.5333°E)
Time: 05:35:04
(UTC+00:00)

CZ-4 R/B - Pass Details

Date: 29 October 2020
Orbit: 532 x 598 km, 97.7° (Epoch: 29 November)

Event Time Altitude Azimuth Distance (km) Brightness Sun altitude
Rises 12:26:54 0° 198° (SSW) 2,736 5.2 -30.6°
Reaches altitude 10° 12:29:34 10° 216° (SW) 1,829 4.4 -31.3°
Maximum altitude 12:32:20 18° 261° (W) 1,366 4.0 -31.9°
Drops below altitude 10° 12:35:04 10° 306° (NW) 1,806 4.5 -32.6°
Sets 12:37:42 0° 325° (NW) 2,689 5.2 -33.2°
